Location: Saint-Maurice-d�Ard�che
(44.5216°N, 4.4002°E)
Time: 03:12:55
(UTC+00:00)

STARLINK-1123 - Pass Details

Date: 30 March 2020
Orbit: 548 x 551 km, 53.0° (Epoch: 29 May)

Event Time Altitude Azimuth Distance (km) Brightness Sun altitude
Rises 20:01:56 0° 304° (WNW) 2,723 8.8 -20.2°
Reaches altitude 10° 20:04:11 10° 307° (NW) 1,827 7.4 -20.5°
Maximum altitude 20:08:19 68° 31° (NNE) 593 3.6 -21.2°
Enters shadow 20:08:45 62° 71° (ENE) 619 3.6 -21.2°
